STARLINK-30497

operational
NORAD ID: 58011 Int'l Des: 2023-153 Owner: SPXS Country: US Constellation: starlink
LEOCIRCULAR

About STARLINK-30497

Description loading...

Live Position

Loading 3D Globe...

Upcoming Passes

Altitude History

Altitude vs Time

uPlot chart will show altitude changes over time

Two-Line Element Set

1 58011U 23153W 25251.29796632 -.00000626 00000-0 -31304-4 0 9999
2 58011 43.0043 340.3342 0001075 272.1734 87.8986 15.02529271107434
Epoch: Sep 8, 2025 • Age: 20 hours

Current Status

Altitude 559.6 km
Velocity 7.59 km/s
Sub-Earth Point 25.54°N, 92.99°E
Launch Date Oct 5, 2023
Age 1.9 years
Type internet

Technical Details

Classification Payload
Mass 730.00 kg
Dry Mass 700.00 kg
Total Mass 730.00 kg
Length 0.30 m
Diameter 4.10 m
Span 29.00 m
Shape Box + pan
Manufacturer SPXS
Bus Type Starlink V2M
Phase Status In Orbit
Owner/State SPXS/US

Large Constellations

Loading constellations...